User: anonymous   Login
Location: Unspecified
(0.0000°N, 0.0000°E)
Time: 10:16:53
(UTC+00:00)
Language:

COSMOS 2496 - Orbit

View from above orbital plane
View from above orbital plane
View from above satellite
View from above satellite

Ground track
Ground track

The orbit data is extracted from the following two-line orbital elements,

1 39761U 14028A   17080.89595506 +.00000010 +00000-0 +00000-0 0  9995
2 39761 082.4442 062.3371 0018324 226.4475 133.5086 12.42866820128402
Epoch (UTC): 21 March 2017 21:30:10
Eccentricity: 0.0018324
inclination: 82.4442°
perigee height: 1480 km
apogee height: 1509 km
right ascension of ascending node: 62.3371°
argument of perigee: 226.4475°
revolutions per day: 12.42866820
mean anomaly at epoch: 133.5086°
orbit number at epoch: 12840

The dashed part of the orbit path shows where the satellite is in the earth's shadow,  

DLR